Regional Weather Roundup
Issued by NWS

Home | Current Version | Previous Version | Text Only | Print | Product List | Glossary Off
Versions: 1 2 3 4 5 6 7 8 9 10 11 12 13 14 15 16 17 18 19 20 21 22 23 24 25 26 27 28

000
ASUS45 KBOU 221407
RWRCO

WEATHER ROUNDUP FOR COLORADO
NATIONAL WEATHER SERVICE DENVER/BOULDER CO
700 AM MST WED FEB 22 2017

NOTE: "FAIR" INDICATES FEW OR NO CLOUDS BELOW 12000 FEET WITH NO
SIGNIFICANT WEATHER AND/OR OBSTRUCTIONS TO VISIBILITY.

COZ001>005-013-030-031-221500-
...NORTHWEST COLORADO...

CITY           SKY/WX    TMP DP  RH WIND       PRES   REMARKS
CRAIG          FLURRIES  31  26  82 SW7       29.98S WCI  24
HAYDEN         FAIR      28  23  80 SW6       29.96F WCI  22
MEEKER         CLOUDY    43  29  57 W10       29.93F
MOUNT WERNER   NOT AVBL
STEAMBOAT SPGS CLOUDY    28  26  91 CALM      29.96S
WALDEN         NOT AVBL
$$

COZ006>008-011-221500-
...WEST CENTRAL VALLEYS...

CITY           SKY/WX    TMP DP  RH WIND       PRES   REMARKS
GRAND JUNCTION FAIR      39  33  79 NE6       29.95F
MONTROSE       FAIR      46  26  45 VRB5      30.01F
EAGLE          PTCLDY    43  25  49 W10       29.97S
RIFLE          FAIR      46  31  55 W6        29.94F
DELTA          FAIR      49  31  50 SW6       29.99F
NUCLA          FAIR      45  32  61 SE3       30.06F
$$

COZ017>023-064>068-221500-
...SOUTHWEST COLORADO...

CITY           SKY/WX    TMP DP  RH WIND       PRES   REMARKS
DURANGO        FAIR      35  31  85 E7        30.12F WCI  29
CORTEZ         MOCLDY    38  35  89 CALM      30.09S
PAGOSA SPRINGS FAIR      32  32 100 CALM      30.15S
TELLURIDE      FAIR      40  15  37 SW17G32   30.11S
WOLF CREEK PAS SNOW      21  21 100 SW26G40   30.19F VSB 1/4 WCI   4
$$

COZ009-010-012-014-032>034-037-058>063-221500-
...CENTRAL COLORADO...

CITY           SKY/WX    TMP DP  RH WIND       PRES   REMARKS
ASPEN          FAIR      34  20  56 N8        29.97F WCI  27
BUENA VISTA    FAIR      39  12  32 W12G18    30.00S
COPPER MTN     LGT SNOW  27  12  54 MISG      30.03S
BERTHOUD PASS  FAIR      19   9  63 W36G59    29.96F WCI  -1
COTTONWOOD PAS FAIR      34  10  37 W9        30.03S WCI  26
GUNNISON       FAIR      38  19  46 W12G23    30.03F
KREMMLING      CLOUDY    45  25  45 W10G22    29.94S
LEADVILLE      FAIR      26   9  48 CALM      30.00F
MONARCH PASS   FAIR      21  12  68 W36G46    30.17F WCI   2
SALIDA         FAIR      39  17  41 SW10G17   30.09S
SUNLIGHT       NOT AVBL
WILKERSON PASS FAIR      25  10  54 SW13G21   30.05F WCI  13
$$

COZ069>075-221500-
...SAN LUIS VALLEY/SANGRE DE CRISTO MOUNTAINS...

CITY           SKY/WX    TMP DP  RH WIND       PRES   REMARKS
ALAMOSA        FAIR      34  27  75 SE13      30.07S WCI  25
LA VETA PASS   FAIR      32  25  74 N15G25    30.14S WCI  22
SAGUACHE       FAIR      27  19  74 N8        30.06F WCI  18
$$

COZ035-036-038>040-221500-
...NORTHERN COLORADO FRONT RANGE...

CITY           SKY/WX    TMP DP  RH WIND       PRES   REMARKS
DENVER INTL AP FAIR      31  22  69 E10       29.87S WCI  22
DMNS CITY PARK   N/A     39  24  54 E13G18    29.86R
AURORA         PTCLDY    38  22  50 E10       29.87R
FRONT RANGE AP NOT AVBL
ERIE MUNI ARPT FAIR      37  26  65 CALM      29.86R
BOULDER MUN AP FAIR      39  27  60 E8        29.85R
CENTENNIAL     FAIR      48  14  25 SW15      29.86S
BROOMFIELD     NOT AVBL
FORT COLLINS   FAIR      38  27  64 NE13      29.85S
LONGMONT       FAIR      39  27  60 E8        29.88R
$$

COZ041-046-047-076>085-087-088-221500-
...PIKES PEAK/PALMER DIVIDE AND SOUTHERN FOOTHILLS...

CITY           SKY/WX    TMP DP  RH WIND       PRES   REMARKS
COLO. SPRINGS  FAIR      49  10  20 W15       29.93F
A. F. ACADEMY  FAIR      49   6  17 W20G36    29.91F
SCHRIEVER AFB  FAIR      48  17  28 SW21G28   29.91F
ELLICOTT       FAIR     N/A N/A N/A W15       29.90S
FALCON         FAIR      38  14  36 W8        29.93F
FORT CARSON    FAIR      45  19  36 SW22      29.90F
LIMON          FAIR      36  26  67 NE10      29.91R
MONUMENT HILL  FAIR      41  10  28 SW17      29.92F
TRINIDAD       FAIR      51  22  31 W17       29.95R
$$

COZ042>045-048>051-090-091-221500-
...NORTHEAST COLORADO...

CITY           SKY/WX    TMP DP  RH WIND       PRES   REMARKS
GREELEY ARPT   FAIR      39  23  52 N23       29.85F
AKRON          FAIR      36  26  67 NW12      29.88S
BURLINGTON     FAIR      40  27  59 N10       29.88S
WRAY           NOT AVBL
STERLING       FAIR      41  27  56 CALM      29.85R
HOLYOKE        FAIR      32  27  80 W8        29.86R WCI  25
FORT MORGAN    FAIR      40  20  44 N16G24    29.88R
$$

COZ086-089-092>099-221500-
...SOUTHEAST COLORADO...

CITY           SKY/WX    TMP DP  RH WIND       PRES   REMARKS
PUEBLO         FAIR      40  22  48 W8        29.88S
LA JUNTA       FAIR      53  24  32 W18       29.85S
LAMAR          FAIR      35  19  52 CALM      29.83S
SPRINGFIELD      N/A     54  26  34 W12       29.88R
$$




USA.gov is the U.S. government's official web portal to all federal, state and local government web resources and services.